Regional Weather Roundup
Issued by NWS

Home | Current Version | Previous Version | Graphics & Text | Print | Product List | Glossary On
Versions: 1 2 3 4 5 6 7 8 9 10 11 12 13 14 15 16 17 18 19 20 21 22 23 24 25 26 27 28 29 30 31 32 33 34 35 36 37 38 39 40 41 42 43 44 45 46 47 48 49 50
068
ASUS44 KLIX 061910
RWRLA
LOUISIANA WEATHER ROUNDUP
NATIONAL WEATHER SERVICE NEW ORLEANS LA
100 PM CST FRI MAR 06 2015

NOTE: "FAIR" INDICATES FEW OR NO CLOUDS BELOW 12,000 FEET WITH NO
      SIGNIFICANT WEATHER AND/OR OBSTRUCTIONS TO VISIBILITY.
      SKY/WX - SKY CONDITION AND SIGNIFICANT WEATHER.
      TMP - AIR TEMPERATURE.    DP   - DEWPOINT TEMPERATURE.
      RH  - RELATIVE HUMIDITY.  PRES - PRESSURE.
      HX  - HEAT INDEX.         WCI  - WIND CHILL INDEX.

*  THESE STATIONS ARE NOT NWS OR FAA STATIONS AND ARE NOT UNDER
   NWS QUALITY CONTROL.

LAZ040-048-061>063-065-066-069-062000-
SOUTHEAST LOUISIANA

CITY           SKY/WX    TMP DP  RH WIND       PRES   REMARKS
N.O. AUDUBON   NOT AVBL
N.O. INTL ARPT PTSUNNY   48  20  32 N13       30.47F
N.O. LAKEFRONT MOSUNNY   51  19  28 N12       30.47F
SLIDELL        MOSUNNY   50  15  24 N13G21    30.45F
BATON ROUGE    SUNNY     50  13  22 N9G17     30.49F
BOOTHVILLE     MOSUNNY   46  28  49 N9G21     30.44F
BELLE CHASSE   PTSUNNY   50  18  28 N8G20     30.45F
BOGALUSA*      NOT AVBL
GALLIANO*      NOT AVBL
NEW ROADS*     NOT AVBL
GONZALES*      NOT AVBL
HAMMOND*       NOT AVBL
HOUMA*         PTSUNNY   50  19  29 N17       30.46F
PORT FOURCHON* NOT AVBL

$$

LAZ041-044-053-054-062000-
SOUTHWEST LOUISIANA

CITY           SKY/WX    TMP DP  RH WIND       PRES   REMARKS
LAKE CHARLES   MOSUNNY   49  17  28 N10       30.52F
LAFAYETTE      MOSUNNY   47  18  31 NE15G22   30.50F
PATTERSON      MOSUNNY   48  18  29 N14       30.48F
SALT POINT       N/A     49  14  24 NE9       30.46F
NEW IBERIA     NOT AVBL
CHENAULT AIRPK SUNNY     46  18  31 N9        30.52F

$$

LAZ027-028-062000-
CENTRAL LOUISIANA

CITY           SKY/WX    TMP DP  RH WIND       PRES   REMARKS
FORT POLK      SUNNY     48  15  26 VRB5      30.52F
ALEXANDRIA INT SUNNY     46  16  30 VRB6      30.53F
ALEXANDRIA     SUNNY     48  14  25 NE9       30.53F

$$

LAZ001-002-062000-
NORTHWEST LOUISIANA

CITY           SKY/WX    TMP DP  RH WIND       PRES   REMARKS
SHREVEPORT     NOT AVBL
BARKSDALE AFB  NOT AVBL
DTN SHREVEPORT SUNNY     45  16  31 N3        30.58F

$$

LAZ014-016-062000-
NORTHEAST LOUISIANA

CITY           SKY/WX    TMP DP  RH WIND       PRES   REMARKS
MONROE         SUNNY     40  20  44 E9        30.59F WCI  34
TALLULAH       SUNNY     42  20  41 N10       30.56F

$$




USA.gov is the U.S. government's official web portal to all federal, state and local government web resources and services.